Palestine, IL

1:23 AM CST on February 26, 2017 (GMT -0600)
Robinson Municipal

Weather History for KRSV - December, 2012

Change the Weather History Date:

Wednesday, December 12, 2012

  Actual Average (KLWV) Record (KLWV)
Temperature  
Mean Temperature 34 °F -  
Max Temperature 47 °F 41 °F 70 °F (2015)
Min Temperature 21 °F 26 °F -4 °F (2013)
Degree Days  
Heating Degree Days 31    
Moisture  
Dew Point 25 °F    
Average Humidity 76    
Maximum Humidity 98    
Minimum Humidity 40    
Precipitation  
Precipitation 0.00 in - - ()
Sea Level Pressure  
Sea Level Pressure 30.35 in    
Wind  
Wind Speed 2 mph (SSE)    
Max Wind Speed 9 mph    
Max Gust Speed -    
Visibility 10 miles    
Events      
Averages and records for this station are not official NWS values.
T = Trace of Precipitation, MM = Missing Value Source: NWS Daily Summary

Daily Weather History Graph

Daily Weather History Graph

Search for Another Location

Airport or City:

Trip Planner

Search our weather history database for the weather conditions in past years. The results will help you decide how hot, cold, wet, or windy it might be!

Date:

Astronomy

Dec. 12, 2012 Rise Set
Actual Time 7:00 AM CST 4:28 PM CST
Civil Twilight 6:30 AM CST 4:58 PM CST
Nautical Twilight 5:57 AM CST 5:32 PM CST
Astronomical Twilight 5:24 AM CST 6:04 PM CST
Moon 6:04 AM CST (12/12) 4:05 PM CST (12/12)
Length of Visible Light 10h 27m
Length of Day
9h 28m
Waning Crescent, 1% of the Moon is Illuminated
Dec 12
Waning Crescent
Dec 13
New
Dec 19
First Quarter
Dec 28
Full
Jan 4
Last Quarter

Hourly Weather History & Observations

Time (CST) Temp. Windchill Dew Point Humidity Pressure Visibility Wind Dir Wind Speed Gust Speed Precip Events Conditions
12:15 AM 27.1 °F - 22.5 °F 83% 30.27 in 10.0 mi Calm Calm - N/A   Clear
12:35 AM 26.2 °F - 22.8 °F 87% 30.27 in 10.0 mi Calm Calm - N/A   Clear
12:55 AM 27.3 °F - 23.4 °F 85% 30.27 in 10.0 mi Calm Calm - N/A   Clear
1:15 AM 26.2 °F - 22.3 °F 85% 30.28 in 10.0 mi Calm Calm - N/A   Clear
1:35 AM 25.9 °F - 22.3 °F 86% 30.28 in 10.0 mi Calm Calm - N/A   Clear
1:55 AM 24.8 °F - 21.7 °F 88% 30.29 in 10.0 mi Calm Calm - N/A   Clear
2:15 AM 25.2 °F 19.5 °F 21.7 °F 87% 30.29 in 10.0 mi SE 4.6 mph - N/A   Clear
2:35 AM 24.8 °F 19.1 °F 22.1 °F 89% 30.29 in 10.0 mi SE 4.6 mph - N/A   Clear
2:55 AM 25.2 °F 19.5 °F 21.6 °F 86% 30.29 in 10.0 mi SE 4.6 mph - N/A   Clear
3:15 AM 26.8 °F - 21.9 °F 82% 30.30 in 10.0 mi Calm Calm - N/A   Clear
3:35 AM 24.8 °F - 20.7 °F 84% 30.30 in 10.0 mi Calm Calm - N/A   Clear
3:55 AM 23.2 °F - 20.1 °F 88% 30.31 in 10.0 mi Calm Calm - N/A   Clear
4:15 AM 22.8 °F - 21.2 °F 93% 30.31 in 10.0 mi Calm Calm - N/A   Clear
4:35 AM 22.6 °F - 21.2 °F 94% 30.31 in 10.0 mi Calm Calm - N/A   Clear
4:55 AM 23.0 °F - 21.7 °F 95% 30.32 in 10.0 mi Calm Calm - N/A   Clear
5:15 AM 23.4 °F - 22.1 °F 95% 30.33 in 10.0 mi Calm Calm - N/A   Clear
5:35 AM 22.5 °F - 21.4 °F 96% 30.33 in 10.0 mi Calm Calm - N/A   Clear
5:55 AM 23.2 °F - 22.1 °F 96% 30.33 in 10.0 mi Calm Calm - N/A   Clear
6:15 AM 22.8 °F - 21.7 °F 96% 30.34 in 7.0 mi Calm Calm - N/A   Clear
6:35 AM 21.6 °F - 20.5 °F 96% 30.35 in 10.0 mi Calm Calm - N/A   Clear
6:55 AM 21.6 °F - 20.5 °F 96% 30.35 in 7.0 mi Calm Calm - N/A   Clear
7:15 AM 22.1 °F - 21.4 °F 97% 30.36 in 7.0 mi Calm Calm - N/A   Clear
7:35 AM 23.2 °F - 22.6 °F 98% 30.36 in 7.0 mi Calm Calm - N/A   Clear
7:55 AM 25.7 °F - 24.8 °F 96% 30.36 in 7.0 mi Calm Calm - N/A   Clear
8:15 AM 28.6 °F - 27.0 °F 94% 30.37 in 7.0 mi Calm Calm - N/A   Clear
8:35 AM 30.6 °F - 28.4 °F 92% 30.38 in 10.0 mi Calm Calm - N/A   Clear
8:55 AM 32.2 °F 27.7 °F 29.8 °F 91% 30.38 in 10.0 mi SE 4.6 mph - N/A   Clear
9:15 AM 34.5 °F 30.4 °F 29.5 °F 82% 30.38 in 10.0 mi SSE 4.6 mph - N/A   Clear
9:35 AM 36.7 °F 32.9 °F 29.5 °F 75% 30.39 in 10.0 mi South 4.6 mph - N/A   Clear
9:55 AM 38.1 °F 34.6 °F 29.3 °F 71% 30.40 in 10.0 mi SSE 4.6 mph - N/A   Clear
10:15 AM 39.4 °F 36.1 °F 29.3 °F 67% 30.39 in 10.0 mi SSE 4.6 mph - N/A   Clear
10:35 AM 40.6 °F 36.7 °F 27.9 °F 60% 30.39 in 10.0 mi SE 5.8 mph - N/A   Clear
10:55 AM 42.3 °F 37.9 °F 27.1 °F 55% 30.39 in 10.0 mi SSE 6.9 mph - N/A   Clear
11:15 AM 43.3 °F 40.7 °F 28.0 °F 55% 30.37 in 10.0 mi SE 4.6 mph - N/A   Clear
11:35 AM 44.8 °F 41.0 °F 25.3 °F 47% 30.37 in 10.0 mi SSE 6.9 mph - N/A   Clear
11:55 AM 45.7 °F 41.5 °F 25.0 °F 44% 30.36 in 10.0 mi SE 8.1 mph - N/A   Clear
12:15 PM 46.4 °F 43.5 °F 25.7 °F 44% 30.36 in 10.0 mi SSE 5.8 mph - N/A   Clear
12:35 PM 46.8 °F - 25.7 °F 44% 30.36 in 10.0 mi SE 5.8 mph - N/A   Clear
12:55 PM 46.8 °F - 24.8 °F 42% 30.35 in 10.0 mi SSE 6.9 mph - N/A   Clear
1:15 PM 47.3 °F - 25.3 °F 42% 30.35 in 10.0 mi South 8.1 mph - N/A   Clear
1:35 PM 47.3 °F - 24.1 °F 40% 30.34 in 10.0 mi South 6.9 mph - N/A   Clear
1:55 PM 47.5 °F - 23.9 °F 40% 30.34 in 10.0 mi South 8.1 mph - N/A   Clear
2:15 PM 47.5 °F - 24.4 °F 41% 30.34 in 10.0 mi SSE 5.8 mph - N/A   Clear
2:35 PM 47.3 °F - 25.3 °F 42% 30.34 in 10.0 mi SSE 8.1 mph - N/A   Clear
2:55 PM 46.9 °F - 25.3 °F 43% 30.34 in 10.0 mi SE 9.2 mph - N/A   Clear
3:15 PM 46.6 °F - 25.5 °F 44% 30.34 in 10.0 mi SSE 8.1 mph - N/A   Clear
3:35 PM 45.5 °F 42.5 °F 27.3 °F 49% 30.34 in 10.0 mi SE 5.8 mph - N/A   Clear
3:55 PM 43.5 °F 40.9 °F 28.2 °F 55% 30.34 in 10.0 mi SE 4.6 mph - N/A   Clear
4:15 PM 41.4 °F 38.4 °F 27.3 °F 57% 30.34 in 10.0 mi SSE 4.6 mph - N/A   Clear
4:35 PM 39.4 °F 35.2 °F 26.4 °F 60% 30.34 in 10.0 mi SE 5.8 mph - N/A   Clear
4:55 PM 39.0 °F 36.8 °F 26.4 °F 61% 30.34 in 10.0 mi SSE 3.5 mph - N/A   Clear
5:15 PM 36.9 °F - 26.2 °F 65% 30.35 in 10.0 mi Calm Calm - N/A   Clear
5:35 PM 34.7 °F 30.6 °F 26.1 °F 71% 30.35 in 10.0 mi SE 4.6 mph - N/A   Clear
6:35 PM 30.6 °F 27.1 °F 26.4 °F 85% 30.36 in 10.0 mi SE 3.5 mph - N/A   Clear
6:55 PM 31.5 °F 28.1 °F 25.0 °F 77% 30.37 in 10.0 mi SE 3.5 mph - N/A   Clear
7:15 PM 31.1 °F 27.7 °F 25.7 °F 80% 30.37 in 10.0 mi SSE 3.5 mph - N/A   Clear
7:35 PM 29.3 °F 25.6 °F 25.5 °F 86% 30.37 in 10.0 mi SSE 3.5 mph - N/A   Clear
7:55 PM 30.0 °F - 25.3 °F 83% 30.37 in 10.0 mi Calm Calm - N/A   Clear
8:15 PM 30.4 °F - 26.1 °F 84% 30.38 in 10.0 mi Calm Calm - N/A   Clear
8:35 PM 28.9 °F - 24.6 °F 84% 30.38 in 10.0 mi Calm Calm - N/A   Clear
9:15 PM 28.8 °F - 24.6 °F 84% 30.37 in 10.0 mi Calm Calm - N/A   Clear
9:35 PM 28.2 °F - 24.6 °F 86% 30.37 in 10.0 mi Calm Calm - N/A   Clear
9:55 PM 28.6 °F - 25.0 °F 86% 30.37 in 10.0 mi Calm Calm - N/A   Clear
10:15 PM 27.3 °F - 25.3 °F 92% 30.37 in 10.0 mi Calm Calm - N/A   Clear
10:35 PM 27.5 °F - 25.9 °F 94% 30.37 in 10.0 mi Calm Calm - N/A   Clear
10:55 PM 26.8 °F - 25.0 °F 93% 30.37 in 10.0 mi Calm Calm - N/A   Clear
11:15 PM 26.4 °F - 25.0 °F 94% 30.38 in 10.0 mi Calm Calm - N/A   Clear
11:35 PM 26.2 °F - 25.2 °F 96% 30.38 in 10.0 mi Calm Calm - N/A   Clear
11:55 PM 26.6 °F 22.6 °F 25.3 °F 95% 30.36 in 10.0 mi ESE 3.5 mph - N/A   Clear